星链-1147 (STARLINK-1147 )

导读

STARLINK-1147是美国太空探索技术公司(SpaceX)星链星座的卫星,由美国在2020年1月29日发射,属于星链低轨互联网星座组网批次卫星。星链旨在为全球提供高速卫星互联网接入服务,该卫星承担着构建全球覆盖卫星通信网络的任务,助力实现全球无死角互联网覆盖。

基本信息
目录编号:
45095
目录名称:
STARLINK-1147
国际标识:
2020-006BD
轨道中心:
EARTH
卫星名称:
星链-1147
卫星全名:
星链-1147 (STARLINK-1147 )
卫星状态:
已陨落 最后检测时间 2025-10-16
发射日期:
2020-01-29 UTC
国别 :
美国 (US)
星等 :
--
轨道信息
数据来源 国际轨道数据
星历时间: 2025-10-16T03:56:35+0800
轨道信息已过期285天
半长轴: 6535.887km
偏心率: 0.0007652
轨道倾角: 53.023°
近地点辐角 299.907°
升交点赤经 110.067°
平近点角 60.122°
近地点: 152.75km
远地点: 162.754km
周期: 87.643分钟
每日圈数: 16.430319
详细信息
固有亮度:
5
最大亮度:
2.5
卫星平台:
Starlink V1.0
覆盖范围:
全球
运营商:
太空探索技术公司
运营商所在国:
美国
制造商(研发单位):
太空探索技术公司
制造商所在国:
美国
使用方式:
暂无
卫星简介
星链(Starlink)计划是由太空探索技术公司(SpaceX)提出的一个巨型低轨卫星互联网星座项目,计划在2019年至2024年间在太空搭建由约1.2万颗卫星组成的“星链”网络,其中1584颗将部署在地球上空550千米处的近地轨道,并从2020年开始工作。该卫星仍在工作。